Other Surface Observations
Issued by NWS Tucson, AZ

Home | Current Version | Previous Version | Text Only | Print | Product List | Glossary On
Versions: 1 2 3 4 5 6 7 8 9 10 11 12 13 14 15 16 17 18 19 20 21 22 23 24 25 26 27 28 29 30 31 32 33 34 35 36 37 38 39 40 41 42 43 44 45 46 47 48 49 50
000
SXUS55 KTWC 070415
OSOTWC

WEATHER ROUNDUP FOR SOUTHEAST ARIZONA
NATIONAL WEATHER SERVICE TUCSON AZ
915 PM MST FRI MAR 06 2015

AZZ504>506-514-070515-
LOCATION       SKY/WX    TMP DP  RH WIND       PRES   REMARKS
TUCSON         CLEAR     67  28  23 E10       30.07S
DAVIS-MONTHAN  CLEAR     63  29  27 NE9       30.06R
CHILDRENS PARK N/A       69  25  19 SE8               PIMA CO DEQ
ALVERNON/22ND  N/A      N/A N/A N/A N/A               PIMA CO DEQ
CHERRY/GLENN   N/A      N/A N/A N/A N/A               PIMA CO DEQ
TANGERINE      N/A       63 N/A N/A E5                PIMA CO DEQ
CONTL RANCH    N/A       68  29  23 E4                PIMA CO DEQ
GRANT/1ST      N/A       69  25  19 W1                PIMA CO DEQ
CRAYCROFT/22ND N/A      N/A N/A N/A N/A               PIMA CO DEQ
GOLFLINKS/KOLB N/A       67  27  22 E7                PIMA CO DEQ
AJO/12TH       N/A       69  25  19 E7                PIMA CO DEQ
SAGUARO EAST   N/A      N/A N/A N/A N/A               PIMA CO DEQ
FAIRGROUNDS    N/A       63 N/A N/A SE12              PIMA CO DEQ
SAGUARO        N/A       68  23  18 NE10G17           *SABINO CYN
SAN CARLOS     N/A       62  18  18 E4                *SAN CARLOS
GREEN VALLEY   N/A       67  28  23 E4                PIMA CO DEQ
HORSE CAMP CYN N/A       57  21  24 E18G29            *ARAVAIPA CYN
RINCON MTNS    N/A       38  20  48 E10G18            *NR MANNING CAMP
$$

AZZ509>511-070515-
LOCATION       SKY/WX    TMP DP  RH WIND       PRES   REMARKS
SAFFORD        CLEAR     54  14  20 SE8       30.16R
STRAY HORSE    N/A       39   3  22 NE2               *
TRAIL CABIN    N/A       48   0  13 S4G14             *N OF GRANVILLE
BLACK HILLS    N/A       61  13  15 SE17G24           *N OF FT THOMAS
DRY LAKE       N/A       43   0  16 SE9G15            *NATANES MTNS
NOON CREEK     NOT AVBL
COLUMBINE      N/A       35   7  31 NE2               *PINALENO MTNS
GUTHRIE        N/A       47   3  16 SE11G24           *SW OF GUTHRIE
$$

AZZ502-503-513-070515-
LOCATION       SKY/WX    TMP DP  RH WIND       PRES   REMARKS
NOGALES        CLEAR     63  27  25 E16G28    30.08R
SELLS          N/A       64  33  31 SE4G13            *
SASABE         N/A       61  30  31 SW4               *ALTAR VLY
HOPKINS        N/A       48  25  41 E21G29            *SANTA RITA MTNS
CARR CYN       N/A       52  27  38 SW5G12            *W OF HEREFORD
$$

AZZ507-508-512-070515-
LOCATION       SKY/WX    TMP DP  RH WIND       PRES   REMARKS
SIERRA VISTA   NOT AVBL
DOUGLAS        PTCLDY    56  28  34 E13       30.15S
EMPIRE MTNS    N/A       51  28  40 NE5G10            *LAS CIENEGAS NCA
MULESHOE RANCH N/A       56  20  24 E10G22            *PRESERVE
HEADQUARTERS   N/A       51  26  37 NE8G17            *CHIRICAHUA MTNS
$$

.............................NOTES.............................
THIS IS AN AUTOMATED COLLECTIVE WITH MINIMAL QUALITY CONTROL.
PIMA CO DEQ SITES HAVE NONSTANDARD WIND SENSOR HEIGHTS.
PIMA CO DEQ SITES DO NOT REPORT WIND GUSTS.
* INDICATES WIND SENSORS LOCATED AT 20 FEET INSTEAD OF 33 FEET.
..............................KEY..............................
SKY/WX - SKY CONDITION/WEATHER
TMP    - TEMPERATURE IN FAHRENHEIT
DP     - DEWPOINT IN FAHRENHEIT
RH     - RELATIVE HUMIDITY IN PERCENT
WIND   - DIRECTION AND SPEED IN MILES PER HOUR (MPH)
VRB    - VARIABLE WIND DIRECTION
PRES   - MEAN SEA LEVEL PRESSURE IN INCHES OF MERCURY
         F - FALLING PRESSURE   R - RISING PRESSURE
         S - STEADY PRESSURE
VSB    - VISIBILITY IN MILES
HX     - HEAT INDEX IN FAHRENHEIT
WCI    - WIND CHILL INDEX IN FAHRENHEIT
N/A    - NOT AVAILABLE
AFB    - AIR FORCE BASE
         DAVIS-MONTHAN IS DAVIS-MONTHAN AIR FORCE BASE
CYN    - CANYON
MTNS   - MOUNTAINS
NCA    - NATIONAL CONSERVATION AREA
NR     - NEAR
VLY    - VALLEY
CONTL  - CONTINENTAL
PIMA CO DEQ - PIMA COUNTY DEPT OF ENVIRONMENTAL QUALITY



USA.gov is the U.S. government's official web portal to all federal, state and local government web resources and services.